Skagway, AK

3:44 PM AKDT on October 01, 2016 (GMT -0800)
Skagway

Weather History for PAGY - May, 2013

Change the Weather History Date:

Friday, May 31, 2013

  Actual Average Record
Temperature  
Mean Temperature 49 °F -  
Max Temperature 52 °F 58 °F 76 °F (1993)
Min Temperature 46 °F 43 °F 35 °F (1966)
Degree Days  
Heating Degree Days 16    
Moisture  
Dew Point 45 °F    
Average Humidity 87    
Maximum Humidity 100    
Minimum Humidity 80    
Precipitation  
Precipitation 0.35 in - - ()
Sea Level Pressure  
Sea Level Pressure 30.12 in    
Wind  
Wind Speed 4 mph (SW)    
Max Wind Speed 21 mph    
Max Gust Speed 28 mph    
Visibility 9 miles    
Events Rain    
Averages and records for this station are not official NWS values.
T = Trace of Precipitation, MM = Missing Value Source: NWS Daily Summary

Daily Weather History Graph

Daily Weather History Graph

Search for Another Location

Airport or City:

Trip Planner

Search our weather history database for the weather conditions in past years. The results will help you decide how hot, cold, wet, or windy it might be!

Date:

Astronomy

May. 31, 2013 Rise Set
Actual Time 3:56 AM AKDT 10:02 PM AKDT
Civil Twilight 2:39 AM AKDT 11:20 PM AKDT
Nautical Twilight Sun does not rise Sun does not rise
Astronomical Twilight Sun does not rise Sun does not rise
Moon 1:20 AM AKDT (5/31) 12:47 PM AKDT (5/31)
Length of Visible Light 20h 41m
Length of Day
18h 06m
Waning Gibbous, 50% of the Moon is Illuminated
May 31
Waning Gibbous
Jun 8
New
Jun 16
First Quarter
Jun 23
Full
Jun 29
Last Quarter

Hourly Weather History & Observations

Time (AKDT) Temp. Windchill Dew Point Humidity Pressure Visibility Wind Dir Wind Speed Gust Speed Precip Events Conditions
12:53 AM 50.0 °F - 46.0 °F 86% 30.04 in 10.0 mi Calm Calm - N/A   Overcast
1:53 AM 50.0 °F - 46.0 °F 86% 30.05 in 10.0 mi Calm Calm - N/A   Overcast
2:53 AM 48.0 °F - 44.1 °F 86% 30.06 in 10.0 mi Calm Calm - N/A   Overcast
3:01 AM 46.4 °F - 42.8 °F 87% 30.05 in 10.0 mi Calm Calm - N/A   Overcast
3:53 AM 50.0 °F - 45.0 °F 83% 30.06 in 10.0 mi Calm Calm - 0.00 in   Overcast
4:26 AM 48.2 °F - 44.6 °F 87% 30.07 in 10.0 mi Calm Calm - N/A   Overcast
4:53 AM 48.9 °F - 45.0 °F 86% 30.07 in 10.0 mi Calm Calm - N/A   Overcast
5:53 AM 50.0 °F - 46.0 °F 86% 30.08 in 10.0 mi Calm Calm - N/A   Overcast
6:38 AM 48.2 °F - 44.6 °F 87% 30.09 in 7.0 mi WSW 9.2 mph - N/A   Overcast
6:46 AM 48.2 °F - 44.6 °F 87% 30.09 in 10.0 mi WSW 6.9 mph - N/A   Overcast
6:53 AM 48.9 °F - 46.0 °F 90% 30.09 in 10.0 mi SSW 3.5 mph - N/A   Overcast
7:04 AM 48.2 °F - 44.6 °F 87% 30.09 in 9.0 mi SW 8.1 mph - N/A   Overcast
7:26 AM 46.4 °F 45.2 °F 46.4 °F 100% 30.10 in 10.0 mi SW 3.5 mph - N/A   Overcast
7:53 AM 51.1 °F - 48.9 °F 92% 30.10 in 10.0 mi Calm Calm - N/A   Overcast
8:01 AM 50.0 °F - 46.4 °F 87% 30.10 in 10.0 mi Calm Calm - N/A   Overcast
8:20 AM 46.4 °F 44.3 °F 44.6 °F 93% 30.12 in 10.0 mi SW 4.6 mph - N/A   Overcast
8:49 AM 50.0 °F - 48.2 °F 94% 30.12 in 10.0 mi Calm Calm - N/A   Overcast
8:53 AM 50.0 °F - 46.9 °F 89% 30.12 in 10.0 mi Calm Calm - N/A   Overcast
9:53 AM 48.9 °F - 46.0 °F 90% 30.13 in 10.0 mi WSW 8.1 mph - N/A   Overcast
10:08 AM 48.2 °F - 44.6 °F 87% 30.13 in 10.0 mi SW 8.1 mph - N/A   Overcast
10:48 AM 48.2 °F - 46.4 °F 93% 30.14 in 10.0 mi SW 5.8 mph - N/A   Overcast
10:53 AM 48.0 °F - 46.0 °F 93% 30.14 in 10.0 mi WSW 10.4 mph - N/A   Overcast
11:04 AM 48.2 °F - 46.4 °F 93% 30.14 in 10.0 mi Variable 5.8 mph - N/A   Overcast
11:27 AM 48.2 °F - 44.6 °F 87% 30.14 in 10.0 mi WSW 9.2 mph - 0.00 in Rain Light Rain
11:53 AM 48.0 °F - 45.0 °F 89% 30.14 in 10.0 mi WSW 9.2 mph - 0.00 in Rain Light Rain
12:53 PM 48.9 °F - 45.0 °F 86% 30.14 in 10.0 mi WSW 11.5 mph - 0.01 in Rain Light Rain
1:53 PM 52.0 °F - 46.9 °F 83% 30.14 in 6.0 mi SSW 15.0 mph 23.0 mph 0.04 in Rain Light Rain
2:53 PM 51.1 °F - 46.0 °F 83% 30.13 in 9.0 mi SSW 13.8 mph - 0.04 in Rain Light Rain
3:53 PM 51.1 °F - 46.0 °F 83% 30.15 in 9.0 mi SSW 20.7 mph 27.6 mph 0.02 in Rain Light Rain
4:53 PM 50.0 °F - 46.0 °F 86% 30.15 in 9.0 mi SSW 20.7 mph - 0.02 in Rain Light Rain
5:53 PM 50.0 °F - 45.0 °F 83% 30.14 in 8.0 mi SSW 20.7 mph 27.6 mph 0.02 in Rain Light Rain
6:53 PM 48.9 °F - 44.1 °F 83% 30.16 in 7.0 mi SSW 18.4 mph - 0.03 in   Overcast
7:53 PM 48.9 °F - 43.0 °F 80% 30.17 in 7.0 mi SSW 16.1 mph 21.9 mph 0.04 in Rain Light Rain
8:53 PM 48.0 °F - 42.1 °F 80% 30.17 in 5.0 mi SSW 11.5 mph - 0.04 in Rain Light Rain
9:53 PM 48.0 °F - 42.1 °F 80% 30.19 in 6.0 mi SSW 6.9 mph - 0.04 in Rain Light Rain
10:53 PM 46.0 °F 43.9 °F 41.0 °F 83% 30.19 in 9.0 mi SSW 4.6 mph - 0.04 in Rain Light Rain
11:53 PM 46.0 °F - 43.0 °F 89% 30.20 in 10.0 mi Calm Calm - 0.01 in Rain Light Rain